Regional Weather Roundup
Issued by NWS Northern Indiana

Home | Current Version | Previous Version | Text Only | Print | Product List | Glossary On
Versions: 1 2 3 4 5 6 7 8 9 10 11 12 13 14 15 16 17 18 19 20 21 22 23 24 25 26 27 28 29 30 31 32 33 34 35 36 37 38 39 40 41 42 43 44 45 46 47 48 49 50
000
ASUS43 KIWX 180800
RWRIWX

KIWX WEATHER ROUNDUP
NATIONAL WEATHER SERVICE NORTHERN INDIANA
400 AM EDT THU SEP 18 2014

NOTE: "FAIR" INDICATES FEW OR NO CLOUDS BELOW 12,000 FEET WITH NO
SIGNIFICANT WEATHER AND/OR OBSTRUCTIONS TO VISIBILITY.

* THESE STATIONS ARE NOT UNDER NWS QUALITY CONTROL. THEY ALSO MAY NOT
  REPORT WEATHER SUCH AS PRECIPITATION OR FOG.

INZ001>027-180900-
NORTHERN INDIANA

CITY           SKY/WX    TMP DP  RH WIND       PRES   REMARKS
VALPARAISO     CLEAR     46  44  93 CALM      30.06R
SOUTH BEND     CLEAR     46  42  86 CALM      30.06S
GOSHEN         CLEAR     43  41  93 CALM      30.06R
ANGOLA*          N/A     45  43  93 CALM      30.05S VSB 1
FORT WAYNE     CLEAR     48  45  89 N5        30.05S
PERU/GRISSOM   CLEAR     47  47 100 CALM      30.05R

$$
INZ028>050-180900-
CENTRAL INDIANA

CITY           SKY/WX    TMP DP  RH WIND       PRES   REMARKS
LAFAYETTE      PTCLDY    47  47 100 CALM      30.04S
KOKOMO*        PTCLDY    46  43  87 CALM      30.05S
MUNCIE*        CLEAR     48  45  89 CALM      30.04S FOG
INDIANAPOLIS   CLEAR     53  49  86 CALM      30.03F

$$
MIZ043>046-050>051-056>058-064>065-071>073-077>080-180900-
SOUTHWEST LOWER MICHIGAN

CITY           SKY/WX    TMP DP  RH WIND       PRES   REMARKS
BATTLE CREEK   CLEAR     46  42  86 CALM      30.06S
BENTON HARBOR  CLEAR     41  40  96 E3        30.05S
COLDWATER*     FOG       44  43  97 CALM      30.05S VSB 1/4
HILLSDALE*     CLEAR     42  42 100 CALM      30.05R
HOLLAND        CLEAR     45  43  93 CALM      30.06S
GRAND RAPIDS   CLEAR     46  43  89 CALM      30.06S
KALAMAZOO      CLEAR     43  41  93 CALM      30.06R FOG
STURGIS*       FOG       43  43 100 CALM      30.05S VSB 1/4
THREE RIVERS*  FAIR      44  43  96 CALM      30.07R

$$
OHZ001>008-015>018-024>025-180900-
NORTHWEST OHIO

CITY           SKY/WX    TMP DP  RH WIND       PRES   REMARKS
DEFIANCE       CLEAR     46  43  89 CALM      30.05R
FINDLAY        CLOUDY    51  48  89 CALM      30.03R
TOLEDO EXPRESS CLEAR     48  44  86 CALM      30.04R
TOLEDO METCALF CLEAR     50  43  77 CALM      30.05R
LIMA           CLEAR     47  44  90 CALM      30.04S

$$
&&



USA.gov is the U.S. government's official web portal to all federal, state and local government web resources and services.